Flight Track Log - Related Links

Times and Time Zones

All times are in EDT time to prevent confusion due to time zone crossing. See the FLG4024 flight status page for this flight to view local times or setup timezone preferences in your user account.


Time Position Orientation Groundspeed Altitude Reporting Facility
EDT Latitude Longitude Course Direction KTS MPH feet Rate Location/Type
Mon 08:35:08 PM 42.2039 -83.3697 227° Southwest 163 188 1,300  Level Cleveland Center
Mon 08:35:57 PM 42.1753 -83.4106 227° Southwest 188 216 3,100 1,935 Climbing Cleveland Center
Mon 08:36:41 PM 42.1550 -83.4397 227° Southwest 187 215 4,300 1,869 Climbing Cleveland Center
Mon 08:36:58 PM 42.1469 -83.4797 255° West 253 291 5,000 2,419 Climbing Cleveland Center
Mon 08:37:43 PM 42.1700 -83.5203 307° West 254 292 6,800 3,049 Climbing Cleveland Center
Mon 08:37:59 PM 42.1936 -83.5514 316° Northwest 260 299 8,100 2,516 Climbing Cleveland Center
Mon 08:38:45 PM 42.2214 -83.5922 313° West 263 303 9,400 2,361 Climbing Cleveland Center
Mon 08:39:00 PM 42.2464 -83.6267 314° West 281 323 10,500 1,935 Climbing Cleveland Center
Mon 08:39:47 PM 42.2919 -83.6267 360° North 298 343 11,400 1,377 Climbing Cleveland Center
Mon 08:40:01 PM 42.3294 -83.6106 18° North 336 387 11,900 1,355 Climbing Cleveland Center
Mon 08:40:49 PM 42.3967 -83.5806 18° North 342 394 12,800 1,082 Climbing Cleveland Center
Mon 08:41:02 PM 42.4228 -83.5703 16° North 356 410 13,000 194 Climbing Cleveland Center
Mon 08:41:51 PM 42.5036 -83.5347 18° North 374 430 13,000 108 Level Cleveland Center
Mon 08:42:53 PM 42.6117 -83.4911 17° North 399 459 13,200 581 Climbing Cleveland Center
Mon 08:43:55 PM 42.7186 -83.4467 17° North 401 461 14,200 968 Climbing Cleveland Center
Mon 08:44:57 PM 42.8272 -83.4008 17° North 405 466 15,200 968 Climbing Cleveland Center
Mon 08:45:59 PM 42.9258 -83.4508 340° North 392 451 16,200 927 Climbing Cleveland Center
Mon 08:47:00 PM 43.0158 -83.5422 323° Northwest 401 461 17,100 780 Climbing Cleveland Center
Mon 08:48:02 PM 43.1208 -83.6478 324° Northwest 391 450 17,800 532 Climbing Cleveland Center
Mon 08:49:04 PM 43.2097 -83.7389 323° Northwest 398 458 18,200 484 Climbing Cleveland Center
Mon 08:50:06 PM 43.3025 -83.8333 323° Northwest 410 472 18,800 838 Climbing Cleveland Center
Mon 08:51:20 PM 43.4475 -83.8547 354° North 435 501 20,100 1,015 Climbing Minneapolis Center
Mon 08:52:22 PM 43.5606 -83.8597 358° North 417 480 21,100 968 Climbing Minneapolis Center
Mon 08:53:24 PM 43.6625 -83.9031 343° North 414 476 22,100 726 Climbing Minneapolis Center
Mon 08:54:26 PM 43.7308 -84.0119 311° West 387 445 22,600 484 Climbing Minneapolis Center
Mon 08:55:28 PM 43.8003 -84.1250 310° West 388 447 23,100 532 Climbing Minneapolis Center
Mon 08:56:30 PM 43.8867 -84.2619 311° West 393 452 23,700 532 Climbing Minneapolis Center
Mon 08:57:32 PM 43.9572 -84.3758 311° West 393 452 24,200 484 Climbing Minneapolis Center
Mon 08:58:34 PM 44.0333 -84.4986 311° West 397 457 24,700 484 Climbing Minneapolis Center
Mon 08:59:36 PM 44.1061 -84.6158 311° West 400 460 25,200 484 Climbing Minneapolis Center
Mon 09:00:38 PM 44.1789 -84.7333 311° West 402 463 25,700 387 Climbing Minneapolis Center
Mon 09:01:40 PM 44.2514 -84.8525 310° West 403 464 26,000 145 Climbing Minneapolis Center
Mon 09:02:42 PM 44.3397 -84.9983 310° West 410 472 26,000  Level Minneapolis Center
Mon 09:03:44 PM 44.4139 -85.1214 310° West 414 476 26,000  Level Minneapolis Center
Mon 09:04:46 PM 44.4886 -85.2469 310° West 420 483 26,000  Level Minneapolis Center
Mon 09:05:48 PM 44.5642 -85.3731 310° West 423 487 26,000  Level Minneapolis Center
Mon 09:06:50 PM 44.6389 -85.4972 310° West 420 483 26,000  Level Minneapolis Center
Mon 09:07:52 PM 44.7244 -85.6072 318° Northwest 425 489 26,000  Level Minneapolis Center
Mon 09:08:54 PM 44.8322 -85.7203 323° Northwest 426 490 26,000  Level Minneapolis Center
Mon 09:09:56 PM 44.9247 -85.8197 323° Northwest 424 488 26,000  Level Minneapolis Center
Mon 09:10:58 PM 45.0175 -85.9186 323° Northwest 421 484 26,000  Level Minneapolis Center
Mon 09:12:00 PM 45.1094 -86.0169 323° Northwest 419 482 26,000  Level Minneapolis Center
Mon 09:13:02 PM 45.2206 -86.1369 323° Northwest 417 480 26,000  Level Minneapolis Center
Mon 09:14:04 PM 45.3122 -86.2361 323° Northwest 417 480 26,000 -242 Level Minneapolis Center
Mon 09:15:06 PM 45.4044 -86.3358 323° Northwest 418 481 25,500 -1,366 Descending Minneapolis Center
Mon 09:16:07 PM 45.4942 -86.4350 322° Northwest 414 476 23,200 -2,195 Descending Minneapolis Center
Mon 09:17:09 PM 45.5556 -86.5686 303° West 411 473 21,000 -2,129 Descending Minneapolis Center
Mon 09:18:11 PM 45.6167 -86.7022 303° West 404 465 18,800 -2,371 Descending Minneapolis Center
Mon 09:19:13 PM 45.6925 -86.8517 306° West 394 453 16,100 -2,390 Descending Minneapolis Center
Mon 09:20:14 PM 45.7900 -86.9233 333° Northwest 405 466 13,900 -2,146 Descending Minneapolis Center
Mon 09:21:16 PM 45.8769 -86.9950 330° Northwest 356 410 11,700 -1,887 Descending Minneapolis Center
Mon 09:22:18 PM 45.9533 -87.0581 330° Northwest 310 357 10,000 -1,694 Descending Minneapolis Center
Mon 09:23:20 PM 46.0261 -87.1175 330° Northwest 276 318 8,200 -1,707 Descending Minneapolis Center
Mon 09:24:21 PM 46.0919 -87.1728 330° Northwest 270 311 6,500 -1,659 Descending Minneapolis Center
Mon 09:25:23 PM 46.1558 -87.2275 329° Northwest 263 303 4,800 -1,366 Descending Minneapolis Center
Mon 09:26:24 PM 46.2206 -87.2747 333° Northwest 259 298 3,700 -537 Descending Minneapolis Center
Mon 09:27:26 PM 46.2775 -87.3100 337° Northwest 227 261 3,700 -244 Level Minneapolis Center
Mon 09:28:27 PM 46.3386 -87.3147 357° North 225 259 3,200 -341 Descending Minneapolis Center
Mon 09:29:29 PM 46.4017 -87.3194 357° North 227 261 3,000 -293 Descending Minneapolis Center
Mon 09:30:30 PM 46.4428 -87.3533 330° Northwest 159 183 2,600 -439 Descending Minneapolis Center
Mon 09:31:32 PM 46.4194 -87.3803 219° Southwest 116 133 2,100 -439 Descending Minneapolis Center
Mon 09:32:33 PM 46.3894 -87.3872 189° South 108 124 1,700 -393 Descending Minneapolis Center

Login

Don't have an account? Register now (free) for customized features, flight alerts, and more!